Hourly Data Report for November 04, 2019

MIRAMICHI RCS
NEW BRUNSWICK
Current Station Operator: ECCC - MSC

47°00'34.000" N
65°27'54.000" W
33.00 m
8100989
71744
ACQ

Download Data

Hourly Data (November 2019)
Hourly Data Report for November 4, 2019
TIME
LST
Temp Definition
°C
Dew Point Definition
°C
Rel Hum Definition
%
Precip. Amount Definition
mm

Wind Dir Definition
10's deg

Wind Spd Definition
km/h
Visibility Definition
km
Stn Press Definition
kPa
Hmdx Definition


Wind Chill Definition


Weather Definition


00:00 0.1 -2.9 80 0.0 23 7   101.18     LegendNANA
01:00 -0.9 -3.6 82 0.0 22 8   101.24   -4 LegendNANA
02:00 -0.9 -3.2 84 0.0 23 9   101.27   -4 LegendNANA
03:00 -0.6 -2.9 84 0.0 25 11   101.33   -4 LegendNANA
04:00 -1.3 -3.2 87 0.0 24 10   101.39   -5 LegendNANA
05:00 -1.2 -3.0 88 0.0 24 10   101.46   -5 LegendNANA
06:00 -1.9 -3.4 90 0.0 23 9   101.54   -5 LegendNANA
07:00 -2.2 -3.7 90 0.0 23 10   101.61   -6 LegendNANA
08:00 -1.1 -2.5 90 0.0 24 6   101.73   -3 LegendNANA
09:00 1.3 -1.7 81 0.0 24 17   101.78     LegendNANA
10:00 3.7 -1.2 70 0.0 24 15   101.83     LegendNANA
11:00 5.3 -1.2 63 0.0 25 20   101.85     LegendNANA
12:00 6.7 -6.6 38 0.0 26 28   101.83     LegendNANA
13:00 7.4 -5.9 38 0.0 28 21   101.86     LegendNANA
14:00 6.2 -5.4 43 0.0 29 20   101.92     LegendNANA
15:00 6.8 -6.0 40 0.0 28 19   101.98     LegendNANA
16:00 6.4 -5.5 42 0.0 28 14   102.02     LegendNANA
17:00 5.1 -5.0 48 0.0 27 7   102.07     LegendNANA
18:00 1.1 -3.9 69 0.0 24 7   102.17     LegendNANA
19:00 0.5 -5.0 66 0.0   0   102.20     LegendNANA
20:00 -1.0 -4.6 76 0.0 21 1   102.23   -1 LegendNANA
21:00 -1.5 -4.6 79 0.0 0 1   102.28   -2 LegendNANA
22:00 -2.1 -5.2 79 0.0 14 1   102.30   -2 LegendNANA
23:00 -2.3 -4.9 82 0.0 16 2   102.31   -3 LegendNANA

Notes on Data Quality.

Legend

  • E = Estimated
  • M = Missing
  • NA = Not Available*
  • [empty] = Indicates an unobserved value
Date modified: